STARLINK-32

decayed
NORAD ID: 44254 Int'l Des: 2019-029 Owner: SPXS Country: US Constellation: starlink
LEOCIRCULAR
Gruppe

Über STARLINK-32

Beschreibung wird geladen...

Höhenverlauf

Altitude vs Time

uPlot chart will show altitude changes over time

Zweizeiliger Elementsatz

1 44254U 19029V 20256.05111232 .54783783 12528-4 80031-3 0 9992
2 44254 52.9893 135.7261 0007330 230.4654 130.1450 16.48299762 72725
Epoch: 12. Sept. 2020 • Age: 43914 hours

Aktueller Status

Position data unavailable
Startdatum 24. Mai 2019
Alter 6.3 years
Verglühungsdatum 12. Sept. 2020
Typ internet

Technische Details

Klassifizierung Payload
Masse 227.00 kg
Trockenmasse 219.00 kg
Gesamtmasse 227.00 kg
Länge 0.20 m
Durchmesser 2.80 m
Spannweite 9.00 m
Form Box + pan
Hersteller SPXS
Bus-Typ Starlink
Phasenstatus Unknown Transfer Status
Besitzer/Staat SPXS/US

Große Konstellationen

Loading constellations...